User: anonymous   Login
Location: Unspecified
(0.0000°N, 0.0000°E)
Time: 15:37:18
(UTC+00:00)
Language:

SURFSAT - Orbit

View from above orbital plane
View from above orbital plane
View from above satellite
View from above satellite

Ground track
Ground track

The orbit data is extracted from the following two-line orbital elements,

1 43614U 18070B   22279.86280632  .00104086  00000-0  10627-2 0  9998
2 43614  93.0143 146.2648 0005145 305.3306  54.7480 15.64723254228421
Epoch (UTC): 06 October 2022 20:42:26
Eccentricity: 0.0005145
inclination: 93.0143°
perigee height: 370 km
apogee height: 377 km
right ascension of ascending node: 146.2648°
argument of perigee: 305.3306°
revolutions per day: 15.64723254
mean anomaly at epoch: 54.7480°
orbit number at epoch: 22842

The dashed part of the orbit path shows where the satellite is in the earth's shadow,  

DLR